User: anonymous   Login
Location: Kikino
(54.4440°N, 112.0940°W)
Time: 15:32:54
(UTC+00:00)
Language:

Vanguard 2 Rocket - Orbit

View from above orbital plane
View from above orbital plane
View from above satellite
View from above satellite

Ground track
Ground track

The orbit data is extracted from the following two-line orbital elements,

1 00012U 59001B   24139.95955754  .00004549  00000-0  27256-2 0  9992
2 00012  32.9005  17.3276 1654044  49.8218 323.5884 11.46348230444070
Epoch (UTC): 18 May 2024 23:01:45
Eccentricity: 0.1654044
inclination: 32.9005°
perigee height: 556 km
apogee height: 3304 km
right ascension of ascending node: 17.3276°
argument of perigee: 49.8218°
revolutions per day: 11.46348230
mean anomaly at epoch: 323.5884°
orbit number at epoch: 44407

The dashed part of the orbit path shows where the satellite is in the earth's shadow,  

DLR